Regional Weather Roundup
Issued by NWS

Home | Current Version | Previous Version | Graphics & Text | Print | Product List | Glossary On
Versions: 1 2 3 4 5 6 7 8 9 10 11 12 13 14 15 16 17 18 19 20 21 22 23 24 25 26 27 28 29 30 31 32 33 34 35 36 37 38 39 40 41 42 43 44 45 46 47 48 49 50
000
ASUS43 KLOT 301201
RWRIL

ILLINOIS REGIONAL WEATHER ROUNDUP
NATIONAL WEATHER SERVICE CHICAGO/ROMEOVILLE IL
700 AM CDT MON MAR 30 2015

NOTE: "FAIR" INDICATES FEW OR NO CLOUDS BELOW 12,000 FEET WITH NO
SIGNIFICANT WEATHER AND/OR OBSTRUCTIONS TO VISIBILITY.

* THESE STATIONS ARE NOT UNDER NWS QUALITY CONTROL. THEY ALSO MAY NOT
  REPORT WEATHER SUCH AS PRECIPITATION OR FOG.

ILZ001-002-007-009-015-016-024-301300-
NORTHWEST ILLINOIS

CITY           SKY/WX    TMP DP  RH WIND       PRES   REMARKS
MOLINE         CLEAR     31  26  82 SW5       30.09R WCI  26
6HR MIN TEMP:  29; 6HR MAX TEMP:  44;

STERLING*      CLEAR     34  27  75 W6        30.07R WCI  29
$$

ILZ003-004-008-010-011-017-018-301300-
NORTH CENTRAL ILLINOIS

CITY           SKY/WX    TMP DP  RH WIND       PRES   REMARKS
ROCKFORD       PTCLDY    35  27  72 SW3       30.05R
6HR MIN TEMP:  35; 6HR MAX TEMP:  41;

$$

ILZ005-006-012>014-019>023-301300-
NORTHEAST ILLINOIS

CITY           SKY/WX    TMP DP  RH WIND       PRES   REMARKS
CHICAGO-OHARE  CLEAR     35  27  72 W8        30.02R WCI  29
6HR MIN TEMP:  35; 6HR MAX TEMP:  41;

CHICAGO-MIDWAY CLEAR     37  29  72 W7        30.03R WCI  32
6HR MIN TEMP:  37; 6HR MAX TEMP:  43;

AURORA         CLEAR     30  25  81 W5        30.05R WCI  25
6HR MIN TEMP:  28; 6HR MAX TEMP:  36;

WAUKEGAN       CLEAR     35  28  75 VRB5      29.99R WCI  31
6HR MIN TEMP:  33; 6HR MAX TEMP:  38;

DUPAGE AIRPORT CLEAR     33  27  78 W8        30.03R WCI  26
6HR MIN TEMP:  33; 6HR MAX TEMP:  40;

WHEELING       CLEAR     36  27  69 W3        30.03R
6HR MIN TEMP:  36; 6HR MAX TEMP:  41;

NORTHERLY ISL    N/A     40  28  63 W9          N/A
$$

LMZ740>746-301300-
SOUTHERN LAKE MICHIGAN

STATION/POSITION SKY/WX   TEMP    WIND        PRES    VSBY  WAVE
                          AIR SEA DIR/SP/G                  HT/PER
                          (F)     (DEG/KT/KT) (MB)    (MI)  (FT/S)
HARRISON CRIB              39     270/ 15/ 16   N/A
BURNHAM HARBOR             40     270/  8/ 12   N/A
CALUMET HARBOR             38     250/  5/  8 1015.0R
BURNS HARBOR               38     260/ 11/ 13 1016.6R
MICHIGAN CITY              36     210/ 12/ 13   N/A
$$

ILZ025>027-034>036-040-047-049-050-058-095>099-301300-
WEST-CENTRAL ILLINOIS

CITY           SKY/WX    TMP DP  RH WIND       PRES   REMARKS
QUINCY         CLEAR     37  31  78 SW5       30.15R WCI  33
$$

ILZ028>032-037-038-041>044-048-051>054-059>061-301300-
CENTRAL ILLINOIS

CITY           SKY/WX    TMP DP  RH WIND       PRES   REMARKS
DECATUR        CLEAR     43  29  57 W10       30.12R
PEORIA         CLEAR     36  27  69 CALM      30.12R
6HR MIN TEMP:  36; 6HR MAX TEMP:  45;

LINCOLN*       CLEAR     41  30  64 W6        30.13R
SPRINGFIELD    CLEAR     35  28  75 W10       30.15R WCI  27
6HR MIN TEMP:  32; 6HR MAX TEMP:  45;

TAYLORVILLE    NOT AVBL
$$

ILZ033-039-045-046-055>057-062-063-301300-
EAST-CENTRAL ILLINOIS

CITY           SKY/WX    TMP DP  RH WIND       PRES   REMARKS
CHAMPAIGN      CLEAR     32  28  85 W9        30.09R WCI  24
MATTOON        CLEAR     35  29  78 NW10      30.10R WCI  27
$$

ILZ079-100>102-301300-
SOUTHWEST ILLINOIS

CITY           SKY/WX    TMP DP  RH WIND       PRES   REMARKS
ALTON          CLEAR     36  32  87 NW5       30.16R WCI  32
CAHOKIA*       CLEAR     42  36  79 W7        30.17R
$$

ILZ064>066-069>071-074>076-080>082-084>086-088>090-092>094-301300-
SOUTH-CENTRAL ILLINOIS

CITY           SKY/WX    TMP DP  RH WIND       PRES   REMARKS
CARBONDALE     CLEAR     41  36  82 NW3       30.17R
6HR MIN TEMP:  41; 6HR MAX TEMP:  52;

MARION         CLEAR     41  37  87 W3        30.18R
MT. VERNON     CLEAR     36  28  75 CALM      30.15R
$$

ILZ067-068-072-073-078-083-087-091-301300-
SOUTHEAST ILLINOIS

CITY           SKY/WX    TMP DP  RH WIND       PRES   REMARKS
LAWRENCEVILLE  CLEAR     38  33  82 W5        30.13R WCI  34
FLORA*         CLEAR     42  32  67 NW9       30.13R
$$

ABBREVIATIONS USED IN REMARKS
   TC - TEMPERATURE IN CELSIUS
  WCI - WIND CHILL INDEX
   HX - HEAT INDEX
  VSB - VISIBILITY
$$




USA.gov is the U.S. government's official web portal to all federal, state and local government web resources and services.